Location: Jagann?thapuram
(16.8562°N, 80.7282°E)
Time: 19:13:37
(UTC+00:00)

Daily predictions for brighter satellites

Satellite Brightness Start Highest point End
(mag) Time Altitude Azimuth Time Altitude Azimuth Time Altitude Azimuth
H-II Stage 2 2.2 12:48:52 10° WNW 12:51:19 70° SSW 12:59:27 10° ESE
Cosmos 292 Rocket 3.9 12:53:35 10° N 12:58:09 52° ENE 13:02:45 10° SSE
Sylda 5 4.1 12:59:04 10° SW 13:02:36 30° SSE 13:11:40 10° ESE
Cosmos 990 Rocket 3.9 13:01:34 10° N 13:06:43 71° ENE 13:11:50 10° SSE
Cosmos 2237 Rocket 3.4 13:03:15 10° SSE 13:07:12 20° ESE 13:11:08 10° ENE
ISS -1.9 13:04:30 10° WSW 13:07:31 32° NW 13:10:34 10° NNE
Cosmos 1842 Rocket 4.0 13:05:09 10° NNW 13:09:23 65° W 13:13:39 10° S
Cosmos 1726 1.9 13:08:13 10° SSE 13:10:49 35° E 13:13:24 10° NNE
Cosmos 1151 Rocket 4.2 13:08:10 10° NNE 13:11:21 21° E 13:14:30 10° SE
Meteor 2-16 Rocket 4.5 13:06:26 10° N 13:12:33 87° E 13:18:40 10° S
Cosmos 2219 Rocket 4.2 13:09:59 10° SW 13:15:03 34° WNW 13:20:09 10° N
USA 215 4.3 13:14:00 10° ENE 13:19:00 23° SE 13:23:59 10° S
Helios 1B rocket 2.5 13:15:23 10° SSE 13:19:06 48° ENE 13:22:49 10° N
SL-08 R/B 3.3 13:15:24 10° NNE 13:20:18 70° ESE 13:25:08 10° S
Intercosmos 24 4.5 13:17:35 10° N 13:21:46 60° E 13:27:46 10° SSE
NOSS 3-3 (C) 4.5 13:19:21 10° SSE 13:23:15 23° ESE 13:27:17 10° ENE
Cosmos 1340 3.4 13:25:00 10° SSW 13:28:08 46° W 13:31:16 10° N
CZ-3C R/B 3.7 13:21:16 10° SW 13:28:10 15° S 13:31:30 10° SSE
Cosmos 1626 1.6 13:26:38 10° N 13:29:33 53° E 13:32:27 10° SSE
CZ-2C R/B 4.0 13:29:34 10° S 13:32:56 40° W 13:36:15 10° NNW
YAOGAN 3 4.5 13:28:57 10° SSE 13:33:10 64° ENE 13:37:23 10° N
ATLAS 3B R/B 3.1 13:25:39 10° NNW 13:33:10 51° ENE 13:40:11 10° SE
BREEZE-M DEB (TANK) 2.4 13:33:30 10° NW 13:35:39 54° SW 13:40:04 10° SSE
Cosmos 1980 3.9 13:30:51 10° S 13:36:11 45° ESE 13:41:32 10° NNE
BREEZE-M R/B 4.4 13:33:21 10° SSW 13:36:47 58° ESE 13:48:58 10° NE
Aurora 2 Rocket 2.3 13:34:14 10° WNW 13:37:48 69° NNE 13:40:21 24° E
NOSS 3-3 (A) 3.9 13:34:04 10° S 13:38:40 38° ESE 13:43:29 10° NE
Cosmos 1766 Rocket 3.4 13:38:26 10° S 13:42:41 64° E 13:46:58 10° NNE
SPOT 1/Viking Rocket 4.1 13:38:49 13° SE 13:43:01 36° ENE 13:47:43 10° N
Cosmos 1844 Rocket 3.3 13:40:46 10° NNW 13:46:18 58° WSW 13:51:50 10° S
YAOGAN 1 2.8 13:45:02 10° S 13:49:16 67° WSW 13:53:31 10° NNW
SJ-6B 3.2 13:49:55 35° ENE 13:49:55 35° ENE 13:53:14 10° N
IUS-7 SRM-1 4.5 13:47:06 10° WNW 13:50:02 39° N 13:57:36 14° ENE
Hubble Space Telescope 1.1 13:48:37 10° WNW 13:52:29 53° SSW 13:53:59 32° SSE
Cosmos 1898 Rocket 3.4 13:47:21 10° NNW 13:52:37 83° ENE 13:57:50 10° SSE
ATLAS CENTAUR R/B 3.8 13:49:22 10° NNW 13:55:49 48° ENE 14:00:50 26° ESE
CZ-4B R/B 3.4 13:53:46 22° SE 13:56:34 53° ENE 14:01:10 10° N
Cosmos 1891 Rocket 4.3 13:50:55 10° S 13:56:52 66° E 14:02:52 10° NNE
ATLAS CENTAUR R/B 1.0 13:59:58 10° SSW 14:03:19 71° WNW 14:05:17 23° NNE
Cosmos 1066 Rocket 4.4 13:58:35 10° N 14:04:10 48° E 14:06:03 35° SE
Aureole 1 Rocket 3.9 14:04:07 10° NW 14:07:05 33° W 14:08:49 18° SSW
Timation 2 Rocket 4.0 14:01:17 10° N 14:07:46 67° ENE 14:11:38 27° SSE
Cosmos 1513 Rocket 4.3 14:08:02 10° S 14:14:05 87° E 14:20:09 10° N
Longmarch 3A Rocket 3.8 14:15:22 10° W 14:19:37 62° N 14:33:41 17° ENE
Cosmos 1464 Rocket 3.9 14:13:46 10° S 14:19:57 70° E 14:26:13 10° N
CZ-4B DEB 4.1 14:18:27 38° SSE 14:20:37 78° ENE 14:26:08 10° N
ATLAS 2A CENTAUR R/B 4.2 14:20:09 10° W 14:24:12 49° SSW 14:28:00 32° SE
OAO 3 Rocket 4.3 14:21:03 10° W 14:25:26 37° NNW 14:26:46 31° N
PAYLOAD B 4.2 14:25:35 63° ENE 14:25:35 63° ENE 14:31:02 10° N
CZ-4B R/B 4.2 14:28:33 31° NNE 14:28:33 31° NNE 14:31:43 10° N
CZ-4 R/B 3.2 14:32:54 21° NNW 14:32:54 21° NNW 14:34:17 10° NNW
Cosmos 158 Rocket 3.8 14:27:11 10° SSW 14:32:09 79° WNW 14:37:01 10° N
Cosmos 1570 Rocket 4.4 14:31:04 10° SSW 14:36:17 61° WNW 14:41:30 10° N
Meteor 1-11 Rocket 3.7 14:35:08 10° S 14:40:54 83° W 14:46:33 10° N
Mugunghwa Rocket 3.9 14:43:28 10° WNW 14:49:23 72° WSW 14:49:23 72° WSW
Cosmos 2237 Rocket 3.9 14:45:58 10° SW 14:50:54 31° WNW 14:55:50 10° N
Intelsat 5-1 Rocket 3.8 14:53:56 10° W 14:55:42 31° WNW 14:55:42 31° WNW
USA 215 3.7 14:58:54 31° NNE 15:01:56 57° NW 15:08:17 10° SW
Resurs 01 Rocket 4.3 15:11:04 14° NNW 15:11:04 14° NNW 15:11:42 10° NNW
EPKM 4.5 15:03:35 10° WNW 15:08:58 84° SSW 15:10:17 72° SE
Lacrosse 4 Rocket 4.4 15:06:53 10° NNW 15:07:04 11° NNW 15:07:04 11° NNW
ACS3 Solar Sail 3.6 15:31:23 24° NNW 15:31:23 24° NNW 15:33:43 10° NNW
CZ-3 R/B 4.2 20:13:08 10° WSW 21:13:02 87° NNW 21:26:13 10° ENE
H-2A R/B 4.2 21:37:22 10° NE 21:41:26 22° E 21:41:47 22° ESE
Cosmos 2285 Rocket 4.5 22:00:19 58° ENE 22:00:19 58° ENE 22:05:47 10° NNE
Cosmos 2322 Rocket 3.7 22:09:00 10° N 22:14:02 33° ENE 22:19:03 10° SE
Thor Agena Rocket 4.4 22:11:07 10° NNE 22:16:04 46° ESE 22:17:04 41° SE
IRS-1D 4.2 22:11:46 10° NNE 22:15:49 52° NE 22:15:49 52° NE
NOSS 3-2 (C) 3.8 22:19:49 43° NNE 22:19:49 43° NNE 22:23:18 10° NNE
Centaur D-1AR AC-41 4.2 22:17:01 54° SW 22:19:20 76° SSE 22:24:05 10° E
SL-08 R/B 4.4 22:13:22 10° N 22:19:44 84° E 22:20:52 62° SSE
FUSE 4.4 22:22:02 59° ENE 22:22:02 59° ENE 22:26:21 10° ENE
SWIFT 4.2 22:27:04 25° ESE 22:27:04 25° ESE 22:28:47 10° ESE
Cosmos 2333 Rocket 3.7 22:26:18 10° N 22:31:30 36° ENE 22:36:38 10° SE
SeaSat 1 4.1 22:28:58 10° SE 22:33:18 33° ENE 22:37:39 10° N
SME Rocket 4.5 22:30:33 10° NE 22:34:21 40° ESE 22:39:20 10° S
Cosmos 1726 Rocket 3.9 22:35:49 59° NE 22:35:49 59° NE 22:39:33 10° NNE
CZ-3B R/B 4.2 22:38:24 17° SSE 22:38:24 17° SSE 22:39:45 10° SSE
SL-16 R/B 2.1 22:37:00 65° SSW 22:37:00 65° SSW 22:41:54 10° S
Cosmos 968 Rocket 4.1 22:37:08 20° S 22:40:39 53° ESE 22:45:41 10° NNE
GPS 2-15 Rocket1 3.1 22:41:14 78° NNE 22:41:14 78° NNE 22:46:00 10° E
ASTRO E2 3.9 22:46:01 32° E 22:46:01 32° E 22:47:56 10° ESE
BLOCK DM-SL R/B 4.1 22:49:52 13° S 22:52:30 18° SSE 23:00:50 10° ESE
Tiangong 0.8 22:55:20 10° N 22:56:57 13° NE 22:58:34 10° ENE
ISS -1.6 23:02:07 17° S 23:02:07 17° S 23:03:07 10° SSE
ARIANE 5 R/B 4.5 22:57:11 21° SSW 23:00:44 32° SSE 23:28:35 10° ESE
Cosmos 1602 3.6 23:00:30 10° N 23:04:00 71° E 23:07:30 10° S
Atlas Centaur 2 3.7 23:02:32 18° NW 23:05:04 25° N 23:10:20 10° NE
OAO 3 Rocket 4.3 23:06:16 25° SSW 23:06:16 25° SSW 23:09:26 10° SSE
Cosmos 1825 Rocket 3.7 23:04:22 10° N 23:08:45 72° E 23:13:05 10° S
DMSP B5D2-2 4.4 23:04:28 10° S 23:09:18 40° W 23:14:09 10° NNW
GP-B 3.8 23:05:16 10° SSE 23:09:32 55° E 23:13:50 10° N
SJ 16-02 1.2 23:09:50 21° SSW 23:12:38 70° WNW 23:16:57 10° N
Okean 1-7 Rocket 4.4 23:16:39 10° NNW 23:26:03 - SSW 23:20:17 29° W
H-2A R/B 3.0 23:16:00 10° NNW 23:20:34 29° WNW 23:22:20 24° WSW
Cosmos 1484 Rocket 3.1 23:21:05 10° N 23:24:36 40° WNW 23:26:55 19° SW
USA 238 DEB 3.6 23:24:48 14° SW 23:29:51 52° WNW 23:35:56 10° NNE
USA 238 3.6 23:24:48 13° SW 23:29:57 53° WNW 23:36:02 10° NNE
ARIANE 5 R/B 3.5 23:26:21 10° NNE 23:31:13 48° E 23:36:01 10° S
Delta 168 2.2 23:29:35 26° WSW 23:31:25 76° NNW 23:34:31 10° ENE
Cosmos 468 Rocket 4.0 23:27:56 10° NNW 23:33:05 59° WSW 23:38:15 10° S
Cosmos 540 Rocket 3.7 23:29:40 10° NNW 23:34:30 45° W 23:39:22 10° S
Cosmos 841 Rocket 4.3 23:30:49 10° N 23:35:49 55° ENE 23:40:50 10° SSE
FALCON 9 R/B 4.4 22:58:01 15° WSW 23:35:50 76° SSE 23:44:03 10° ENE
Cosmos 2227 Rocket 3.0 23:30:33 10° S 23:36:01 54° ESE 23:41:28 10° NNE
CZ-3 Stage 3 3.0 23:35:38 16° WNW 23:38:27 38° N 23:48:51 10° ENE
ATLAS 5 CENTAUR R/B 3.5 23:12:38 13° W 23:40:46 88° N 23:47:16 10° E
CSL-04 DEB 4.2 23:37:11 10° NNE 23:40:58 84° ESE 23:44:41 10° S
NOSS 2-2 (C) 3.8 23:37:29 10° SSW 23:42:08 63° ESE 23:45:38 10° NE
Cosmos 2297 Rocket 2.4 23:38:26 10° SSW 23:43:53 50° WNW 23:49:20 10° N
SL-08 RB Rocket 3.8 23:41:53 10° N 23:46:09 51° WNW 23:50:26 10° SSW
Cosmos 2360 Rocket 2.8 23:41:43 10° NW 23:46:41 33° WSW 23:51:39 10° SSW
Cosmos 1939 Rocket 4.5 23:50:49 10° NW 23:53:11 15° WNW 23:55:33 10° WSW
FengYun 1-2 T 4.5 23:49:02 10° N 23:54:15 47° WNW 23:59:27 10° SSW
